     2              Observation         GPS                 RINEX VERSION / TYPE
teqc 1997Jul24 19970902 21:11:35UTC                         PGM / RUN BY / DATE
                                                            COMMENT
BIT 2 OF LLI FLAGS DATA COLLECTED UNDER A-S CONDITION       COMMENT
BIT 2 OF LLI FLAGS DATA COLLECTED UNDER A-S CONDITION       COMMENT
Original Marker Name: 55491.SAGO                            COMMENT
Campaign Name: Salt. Tr. Crust. Monit. May-Jun 1986         COMMENT
4-Character Station Name: SAGO                              COMMENT
6-Character Antenna Code: TI4100                            COMMENT
Vertical Measurement Point: PAE                             COMMENT
Vertical Offset to Rinex Ref. Point: 0.0000                 COMMENT
Radial Measurement Point: RRP                               COMMENT
Radial Offset to Rinex Ref. Point: 0.0000                   COMMENT
Antenna Height from Field Measurement: 1.1660 m             COMMENT
Revised Rinex header created by UCSD GPS archive for        COMMENT
SCEC DC on 24-Sep-1997 (1997.267) 19:20:20 GMT              COMMENT
For assistance contact dagnew@ucsd.edu or hjohnson@ucsd.edu COMMENT
                                                            COMMENT
SANTIAGO                                                    MARKER NAME
5 NATIONAL GEODETIC SURVEY                                  OBSERVER / AGENCY
UT-18 TI 4100 1.0                                           REC # / TYPE / VERS
4014 TI 4100                                                ANT # / TYPE
 -2452714.0304 -4711619.8150  3518811.9626                  APPROX POSITION XYZ
        1.1660        0.0000        0.0000                  ANTENNA: DELTA H/E/N
     1     1     0                                          WAVELENGTH FACT L1/2
     4    P1    P2    L1    L2                              # / TYPES OF OBSERV
     6                                                      INTERVAL
  1986     6    20     3    59   59.000000                  TIME OF FIRST OBS
  1986     6    20     4    23   59.000000                  TIME OF LAST OBS
     0                                                      # OF SATELLITES
                                                            END OF HEADER
 86  6 20  3 59 59.0800000  0  3G12G13G 7
  21397985.429    21397989.074    43356908.736 9 -59948277.193 9
                  19048362.712       36091.823 1
  23175098.495    23175102.636    12829235.612 9 -32960589.625 8
 86  6 20  4  0  5.0800000  0  3G12G13G 7
  21400513.516    21400517.917    43370194.508 8 -59937924.636 7
                  18924483.308       46026.113 1
  23174113.344    23174116.072    12824058.385 8 -32964623.828 9
 86  6 20  4  0 11.0800000  0  3G12G13G 7
  21403044.641    21403050.444    43383500.879 7 -59927556.049 7
                  19100465.767       54783.682 1
                  23173136.348                   -32968634.139 8
 86  6 20  4  0 17.0800000  0  3G12G13G 7
  21405578.598    21405587.251    43396827.656 7 -59917171.544 8
                  18976500.668       64264.906 1
  23172160.145    23172164.677    12782534.405 8 -32972616.264 8
 86  6 20  4  0 23.0800000  0  3G12G13G 7
  21408118.116    21408126.658    43410175.037 8 -59906770.998 8
                  19153821.608       75428.152 1
  23171196.223    23171198.721    12777460.889 7 -32976569.642 8
 86  6 20  4  0 29.0800000  0  3G12G13G 7
  21410661.957    21410670.211    43423542.773 8 -59896354.592 7
                  19030065.467       84469.078 1
  23170237.602    23170239.059    12772420.332 8 -32980497.350 6
 86  6 20  4  0 35.0800000  0  3G12G13G 7
  21413210.545    21413217.881    43436930.983 7 -59885922.213 8
                  19206699.566       92038.095 1
  23169284.085    23169285.854    12767408.245 7 -32984402.868 8
 86  6 20  4  0 41.0800000  0  3G12G13G 7
  21415762.478    21415768.195    43450339.595 7 -59875473.947 7
                  19083466.993      103835.519 1
  23168334.625    23168336.296    12762420.913 8 -32988289.100 7
 86  6 20  4  0 47.0800000  0  3G12G13G 7
  21418316.479    21418322.905    43463768.563 7 -59865009.821 8
                  18960149.332      115188.174 1
  23167390.788    23167392.908    12757455.683 7 -32992158.121 8
 86  6 20  4  0 53.0800000  0  3G12G13G 7
  21420877.295    21420882.592    43477217.986 8 -59854529.762 8
                  19135680.952      121565.782 1
  23166448.233    23166451.730    12752510.811 8 -32996011.274 7
 86  6 20  4  0 59.0800000  0  3G12G13G 7
  21423439.380    21423445.858    43490687.597 7 -59844033.968 8
                  19010869.255      131212.620 1
  23165511.056    23165513.185    12747585.969 7 -32999848.807 7
 86  6 20  4  1  5.0800000  0  3G12G13G 7
  21426008.363    21426013.320    43504177.669 9 -59833522.221 8
                  19187770.364      144795.830 1
  23164577.164    23164580.741    12742685.255 8 -33003667.544 8
 86  6 20  4  1 11.0800000  0  3G12G13G 7
  21428578.263    21428584.064    43517687.978 8 -59822994.696 8
                  19063707.413      152219.168 1
                  23163654.254                   -33007461.946 8
 86  6 20  4  1 17.0800000  0  3G12G13G 7
  21431154.438    21431157.756    43531218.518 7 -59812451.421 7
                  18939262.342      157635.452 1
  23162729.825    23162732.236    12701431.421 7 -33011227.801 9
 86  6 20  4  1 23.0800000  0  3G12G13G 7
  21433733.676    21433736.956    43544769.368 8 -59801892.322 9
                  19117274.003      172427.216 1
  23161817.462    23161820.836    12696635.009 7 -33014965.247 8
 86  6 20  4  1 29.0800000  0  3G12G13G 7
  21436315.572    21436318.959    43558340.377 7 -59791317.512 7
                  18993969.485      183834.256 1
  23160912.072    23160913.000    12691871.053 8 -33018677.031 8
 86  6 20  4  1 35.0800000  0  3G12G13G 7
  21438901.555    21438906.031    43571931.714 8 -59780726.871 8
                  19169046.172      187831.904 1
  23160011.594    23160012.806    12687135.950 8 -33022366.729 6
 86  6 20  4  1 41.0800000  0  3G12G13G 7
  21441493.639    21441496.012    43585543.104 8 -59770120.588 7
                  19044521.596      198996.334 1
  23159115.351    23159116.771    12682425.240 8 -33026037.406 7
 86  6 20  4  1 47.0800000  0  3G12G13G 7
  21444085.782    21444089.247    43599174.721 8 -59759498.554 8
                  19222761.187      214999.509 1
  23158224.252    23158223.956    12677736.632 8 -33029690.859 7
 86  6 20  4  1 53.0800000  0  3G12G13G 7
  21446684.836    21446686.700    43612826.509 8 -59748860.796 7
                  19096946.197      219385.281 1
  23157336.071    23157335.864    12673068.186 9 -33033328.625 8
 86  6 20  4  1 59.0800000  0  3G12G13G 7
  21449285.397    21449289.084    43626498.364 7 -59738207.411 7
                  18970373.071      224407.189 1
  23156451.973    23156450.589    12668420.186 7 -33036950.443 7
 86  6 20  4  2  5.0800000  0  3G12G13G 7
  21451890.630    21451895.536    43640190.463 8 -59727538.246 9
                  19147965.314      241618.916 1
  23155572.120    23155571.897    12663796.706 9 -33040553.158 8
 86  6 20  4  2 11.0800000  0  3G12G13G 7
  21454499.592    21454504.331    43653902.439 8 -59716853.588 9
                  19023294.734      252016.358 1
                  23154698.797                   -33044131.233 8
 86  6 20  4  2 17.0800000  0  3G12G13G 7
  21457112.134    21457118.788    43667634.624 8 -59706153.192 8
                  19196162.211      253634.046 1
  23153832.223    23153832.128    12622815.262 9 -33047681.156 8
 86  6 20  4  2 23.0800000  0  3G12G13G 7
  21459730.996    21459734.328    43681386.743 9 -59695437.241 8
                  19073253.736      267132.056 1
  23152970.400    23152974.069    12618296.325 8 -33051201.516 8
 86  6 20  4  2 29.0800000  0  3G12G13G 7
  21462352.347    21462354.713    43695158.907 9 -59684705.695 8
                  19251369.639      285555.195 1
  23152116.189    23152119.137    12613810.704 8 -33054696.804 9
 86  6 20  4  2 35.0800000  0  3G12G13G 7
  21464975.416    21464979.836    43708951.162 8 -59673958.482 8
                  19124543.455      286155.413 1
  23151268.856    23151271.190    12609353.109 8 -33058170.254 8
 86  6 20  4  2 41.0800000  0  3G12G13G 7
  21467605.332    21467608.296    43722763.263 8 -59663195.804 8
                  18999856.129      291838.927 1
  23150425.635    23150427.132    12604919.786 9 -33061624.792 8
 86  6 20  4  2 47.0800000  0  3G12G13G 7
  21470236.177    21470240.729    43736595.376 8 -59652417.544 8
                  19178786.854      311470.618 1
  23149586.038    23149586.496    12600508.567 8 -33065062.108 8
 86  6 20  4  2 53.0800000  0  3G12G13G 7
  21472874.092    21472875.150    43750447.319 8 -59641623.838 8
                  19053712.219      319742.481 1
  23148749.914    23148751.903    12596117.612 8 -33068483.637 8
 86  6 20  4  2 59.0800000  0  3G12G13G 7
  21475513.518    21475515.270    43764319.157 9 -59630814.604 8
                  19227883.134      318980.208 1
  23147918.323    23147920.354    12591747.421 8 -33071888.972 7
 86  6 20  4  3  5.0800000  0  3G12G13G 7
  21478156.240    21478158.316    43778210.936 8 -59619989.843 8
                  19105424.390      336371.774 1
                  23147093.226                   -33075274.912 8
 86  6 20  4  3 11.0800000  0  3G12G13G 7
  21480804.159    21480806.400    43792122.440 8 -59609149.719 9
                  18983349.652      354243.251 1
  23146272.193    23146273.215    12550994.196 9 -33078636.065 9
 86  6 20  4  3 17.0800000  0  3G12G13G 7
  21483453.976    21483458.244    43806053.914 8 -59598294.021 8
                  19157293.050      352289.569 1
  23145458.449    23145459.292    12546718.024 9 -33081968.127 8
 86  6 20  4  3 23.0800000  0  3G12G13G 7
  21486110.052    21486111.961    43820005.062 8 -59587423.010 8
                  19031559.887      360186.664 1
  23144653.005    23144653.043    12542478.776 9 -33085271.830 8
 86  6 20  4  3 29.0800000  0  3G12G13G 7
  21488767.537    21488771.828    43833976.016 8 -59576536.547 8
                  19210070.780      382238.319 1
  23143851.891    23143852.829    12538271.614 8 -33088550.131 8
 86  6 20  4  3 35.0800000  0  3G12G13G 7
  21491430.051    21491434.654    43847966.811 9 -59565634.657 8
                  19066115.862      396008.924 1
  23143055.478    23143057.664    12534092.137 8 -33091806.872 7
 86  6 20  4  3 41.0800000  0  3G12G13G 7
  21494096.029    21494101.597    43861977.295 9 -59554717.394 8
                  19222126.695      406066.483 1
  23142265.239    23142266.628    12529936.984 9 -33095044.660 8
 86  6 20  4  3 47.0800000  0  3G12G13G 7
  21496766.516    21496771.561    43876007.539 9 -59543784.750 9
                  19059432.663      415298.508 1
  23141478.350    23141480.863    12525803.823 9 -33098265.289 8
 86  6 20  4  3 53.0800000  0  3G12G13G 7
  21499440.167    21499443.967    43890057.346 9 -59532836.849 7
                  19200270.315      424161.799 1
  23140695.999    23140697.721    12521690.971 8 -33101470.110 8
 86  6 20  4  3 59.0800000  0  3G12G13G 7
  21502118.034    21502121.065    43904126.940 8 -59521873.523 9
                  19040068.816      434180.739 1
  23139917.664    23139920.513    12517599.004 9 -33104658.663 9
 86  6 20  4  4  5.0800000  0  3G12G13G 7
  21504798.944    21504802.215    43918216.183 9 -59510894.903 8
                  19195721.061      445449.707 1
                  23139146.364                   -33107827.462 8
 86  6 20  4  4 11.0800000  0  3G12G13G 7
  21507483.732    21507486.002    43932325.097 9 -59499900.951 8
                  19038047.942      454896.351 1
  23138325.983    23138377.310    12477113.155 8 -33110971.112 9
 86  6 20  4  4 17.0800000  0  3G12G13G 7
  21510172.768    21510176.849    43946453.620 8 -59488891.714 7
                  19167229.040      462571.092 1
  23137615.455    23137617.434    12473116.324 8 -33114085.419 8
 86  6 20  4  4 23.0800000  0  3G12G13G 7
  21512865.661    21512869.092    43960601.593 8 -59477867.332 8
                  18995869.888      470938.293 1
  23136861.178    23136863.722    12469155.914 9 -33117171.453 8
 86  6 20  4  4 29.0800000  0  3G12G13G 7
  21515561.051    21515564.461    43974769.271 9 -59466827.591 6
                  19131240.284      483418.673 1
  23136112.142    23136114.903    12465227.860 8 -33120232.257 8
 86  6 20  4  4 35.0800000  0  3G12G13G 7
  21518260.447    21518263.828    43988956.361 8 -59455772.721 7
                  19278918.875      495901.910 1
  23135369.448    23135373.202    12461327.351 8 -33123271.620 7
 86  6 20  4  4 41.0800000  0  3G12G13G 7
  21520964.972    21520966.499    44003163.019 9 -59444702.608 8
                  19131234.548      502406.079 1
  23134632.677    23134634.279    12457451.163 9 -33126292.018 7
 86  6 20  4  4 47.0800000  0  3G12G13G 7
  21523672.153    21523673.545    44017389.141 9 -59433617.323 7
                  19271033.182      508895.126 1
  23133899.464    23133901.285    12453596.884 8 -33129295.349 7
 86  6 20  4  4 53.0800000  0  3G12G13G 7
  21526382.498    21526384.058    44031634.656 9 -59422516.922 7
                  19112599.448      522037.346 1
  23133170.880    23133169.711    12449762.839 8 -33132282.916 7
 86  6 20  4  4 59.0800000  0  3G12G13G 7
  21529097.230    21529098.650    44045899.744 9 -59411401.266 6
                  19242340.608      535731.994 1
  23132445.337    23132446.285    12445949.928 8 -33135254.011 6
 86  6 20  4  5  5.0800000  0  3G12G13G 7
  21531814.977    21531818.141    44060184.153 9 -59400270.563 6
                  19083495.102      543630.764 1
                  23131724.798                   -33138204.999 7
 86  6 20  4  5 11.0800000  0  3G12G13G 7
  21534536.168    21534540.100    44074488.129 8 -59389124.616 7
                  19246512.574      548931.258 1
  23130952.033    23131010.572    12405740.505 9 -33141130.285 8
 86  6 20  4  5 17.0800000  0  3G12G13G 7
  21537263.099    21537264.759    44088811.371 8 -59377963.651 7
                  19081174.494      561213.730 1
  23130304.687    23130303.219    12402023.759 8 -33144026.219 7
 86  6 20  4  5 23.0800000  0  3G12G13G 7
  21539991.404    21539992.103    44103153.950 9 -59366787.617 8
                  19217594.612      576119.788 1
  23129603.824    23129601.167    12398342.992 9 -33146893.979 7
 86  6 20  4  5 29.0800000  0  3G12G13G 7
  21542724.349    21542726.835    44117515.985 9 -59355596.430 8
                  19057896.009      585697.154 1
  23128909.618    23128907.561    12394694.797 9 -33149736.713 9
 86  6 20  4  5 35.0800000  0  3G12G13G 7
  21545461.035    21545462.719    44131897.163 8 -59344390.314 8
                  19202809.777      589809.096 1
  23128220.593    23128217.801    12391073.886 9 -33152558.220 8
 86  6 20  4  5 41.0800000  0  3G12G13G 7
  21548201.382    21548203.437    44146297.756 8 -59333169.069 7
                  19044419.121      598567.861 1
  23127535.860    23127534.820    12387477.356 9 -33155360.717 7
 86  6 20  4  5 47.0800000  0  3G12G13G 7
  21550945.370    21550947.695    44160717.507 8 -59321932.892 9
                  19186927.800      614685.330 1
  23126855.105    23126854.748    12383902.599 9 -33158146.225 9
 86  6 20  4  5 53.0800000  0  3G12G13G 7
  21553693.629    21553696.433    44175156.504 8 -59310681.733 7
                  19036207.733      626797.277 1
  23126178.194    23126179.708    12380348.021 9 -33160916.032 8
 86  6 20  4  5 59.0800000  0  3G12G13G 7
  21556444.174    21556446.365    44189614.713 8 -59299415.584 7
                  19166534.512      629720.669 1
  23125506.921    23125506.561    12376814.818 9 -33163669.150 7
 86  6 20  4  6  5.0800000  0  3G12G13G 7
  21559199.370    21559202.005    44204092.000 8 -59288134.583 7
                  19008722.100      633803.743 1
                  23124839.827                   -33166401.714 8
 86  6 20  4  6 11.0800000  0  3G12G13G 7
  21561957.617    21561961.226    44218588.660 7 -59276838.483 8
                  19162598.574      651132.623 1
  23124091.118    23124179.048    12336883.958 8 -33169108.175 8
 86  6 20  4  6 17.0800000  0  3G12G13G 7
  21564720.310    21564723.525    44233104.367 9 -59265527.536 8
                  19010622.794      667419.127 1
  23123524.095    23123524.970    12333448.169 9 -33171785.235 8
 86  6 20  4  6 23.0800000  0  3G12G13G 7
  21567484.335    21567487.963    44247639.316 8 -59254201.601 8
                  19146001.202      669153.966 1
  23122876.269    23122879.994    12330048.561 9 -33174434.267 8
 86  6 20  4  6 29.0800000  0  3G12G13G 7
  21570255.007    21570258.194    44262193.285 8 -59242860.851 8
                  19292808.649      670891.663 1
  23122235.715    23122238.143    12326680.685 8 -33177058.591 7
 86  6 20  4  6 35.0800000  0  3G12G13G 7
  21573027.191    21573031.188    44276766.237 8 -59231505.296 8
                  19137587.973      688597.619 1
  23121599.289    23121601.845    12323339.942 8 -33179661.758 7
 86  6 20  4  6 41.0800000  0  3G12G13G 7
  21575805.604    21575808.668    44291358.336 8 -59220134.828 8
                  19284369.949      707140.766 1
  23120968.855    23120970.968    12320023.376 8 -33182246.102 7
 86  6 20  4  6 47.0800000  0  3G12G13G 7
  21578585.535    21578588.699    44305969.402 8 -59208749.592 8
                  19132233.379      710260.957 1
  23120340.585    23120344.630    12316728.307 8 -33184813.678 8
 86  6 20  4  6 53.0800000  0  3G12G13G 7
  21581369.108    21581372.671    44320599.521 8 -59197349.501 8
                  19282622.989      710810.101 1
  23119718.232    23119719.176    12313453.637 9 -33187365.388 8
 86  6 20  4  6 59.0800000  0  3G12G13G 7
  21584158.567    21584159.455    44335248.552 8 -59185934.678 8
                  19131564.638      727304.314 1
  23119098.645    23119101.167    12310200.353 8 -33189900.414 9
 86  6 20  4  7  5.0800000  0  3G12G13G 7
  21586949.621    21586951.616    44349916.542 9 -59174505.076 8
                  19282387.546      747058.871 1
                  23118486.449                   -33192414.535 8
 86  6 20  4  7 11.0800000  0  3G12G13G 7
  21589744.127    21589746.868    44364603.600 9 -59163060.629 8
                  19132959.709      750557.678 1
  23117849.571    23117878.891    12270542.500 8 -33194902.082 8
 86  6 20  4  7 17.0800000  0  3G12G13G 7
  21592541.913    21592545.435    44379309.435 9 -59151601.542 8
                  19284003.222      749918.272 1
  23117276.163    23117278.406    12267387.968 8 -33197360.196 9
 86  6 20  4  7 23.0800000  0  3G12G13G 7
  21595344.824    21595348.475    44394034.256 9 -59140127.662 8
                  19121826.552      766496.719 1
  23116683.543    23116685.687    12264269.266 8 -33199790.349 8
 86  6 20  4  7 29.0800000  0  3G12G13G 7
  21598151.541    21598154.327    44408777.716 9 -59128639.253 8
                  19262620.704      787462.688 1
  23116094.063    23116098.041    12261182.070 8 -33202195.957 8
 86  6 20  4  7 35.0800000  0  3G12G13G 7
  21600959.694    21600963.549    44423540.156 9 -59117136.065 8
                  19108230.216      794136.067 1
  23115511.385    23115515.558    12258121.918 8 -33204580.496 8
 86  6 20  4  7 41.0800000  0  3G12G13G 7
  21603772.168    21603776.830    44438321.397 8 -59105618.219 9
                  19248205.310      792308.108 1
  23114933.645    23114938.163    12255085.885 7 -33206946.240 8
 86  6 20  4  7 47.0800000  0  3G12G13G 7
  21606588.261    21606594.325    44453121.243 9 -59094085.894 6
                  19090920.607      802250.898 1
  23114360.258    23114365.819    12252071.177 8 -33209295.373 7
 86  6 20  4  7 53.0800000  0  3G12G13G 7
  21609407.601    21609410.759    44467939.957 8 -59082538.826 6
                  19241617.292      824428.276 1
  23113790.626    23113795.349    12249077.095 7 -33211628.438 7
 86  6 20  4  7 59.0800000  0  3G12G13G 7
  21612231.206    21612234.462    44482777.320 9 -59070977.241 8
                  19072669.207      840844.567 1
  23113225.072    23113229.445    12246104.782 7 -33213944.522 6
 86  6 20  4  8  5.0800000  0  3G12G13G 7
  21615057.328    21615062.432    44497633.479 9 -59059401.005 8
                  19192069.972      851027.848 1
                  23112669.251                   -33216239.149 8
 86  6 20  4  8 11.0800000  0  3G12G13G 7
  21617888.427    21617892.832    44512508.328 8 -59047810.211 8
                  19315280.416      861213.988 1
  23112085.579    23112114.927    12206724.710 7 -33218507.295 9
 86  6 20  4  8 17.0800000  0  3G12G13G 7
  21620722.105    21620726.035    44527401.801 9 -59036204.924 8
                  19131161.946      870294.599 1
  23111563.523    23111569.222    12203851.666 8 -33220745.994 8
 86  6 20  4  8 23.0800000  0  3G12G13G 7
  21623559.983    21623563.682    44542314.008 8 -59024585.020 8
                  19240078.754      879286.472 1
  23111024.762    23111028.225    12201015.152 8 -33222956.657 9
 86  6 20  4  8 29.0800000  0  3G12G13G 7
  21626403.043    21626404.793    44557244.757 8 -59012950.678 8
                  19032516.834      888354.010 1
  23110490.513    23110495.029    12198209.291 7 -33225143.051 8
 86  6 20  4  8 35.0800000  0  3G12G13G 7
  21629248.314    21629250.323    44572194.223 9 -59001301.743 8
                  19158889.609      899751.560 1
  23109963.490    23109965.792    12195430.441 8 -33227308.386 8
 86  6 20  4  8 41.0800000  0  3G12G13G 7
  21632096.708    21632098.368    44587162.152 8 -58989638.419 8
                  19275884.713      911151.968 1
  23109439.153    23109441.594    12192675.139 9 -33229455.379 8
 86  6 20  4  8 47.0800000  0  3G12G13G 7
  21634948.434    21634949.699    44602148.671 8 -58977960.612 8
                  19076396.357      921078.045 1
  23108918.718    23108921.238    12189941.394 8 -33231585.561 8
 86  6 20  4  8 53.0800000  0  3G12G13G 7
  21637801.299    21637804.763    44617153.741 9 -58966268.363 7
                  19186554.815      928884.223 1
  23108403.750    23108403.220    12187228.175 9 -33233699.779 7
 86  6 20  4  8 59.0800000  0  3G12G13G 7
  21640661.324    21640662.787    44632177.219 8 -58954561.760 8
                  19279423.189      936693.260 1
  23107890.919    23107890.985    12184536.918 9 -33235796.870 8
 86  6 20  4  9  5.0800000  0  3G12G13G 7
  21643523.303    21643526.354    44647219.367 8 -58942840.605 8
                  19086067.747      946506.737 1
                  23107384.110                   -33237872.272 7
 86  6 20  4  9 11.0800000  0  3G12G13G 7
  21646389.949    21646390.584    44662279.744 8 -58931105.251 8
                  19193330.882      959121.413 1
  23106883.078    23106885.389    12145452.203 8 -33239920.696 8
 86  6 20  4  9 17.0800000  0  3G12G13G 7
  21649260.734    21649259.994    44677358.653 8 -58919355.466 7
                  19298249.600      971738.946 1
  23106390.491    23106391.621    12142861.479 8 -33241939.450 8
 86  6 20  4  9 23.0800000  0  3G12G13G 7
  21652131.621    21652133.763    44692455.968 8 -58907591.317 7
                  19105354.465      980897.372 1
  23105903.264    23105906.287    12140305.783 8 -33243930.509 7
 86  6 20  4  9 29.0800000  0  3G12G13G 7
  21655008.856    21655008.606    44707571.668 7 -58895812.854 8
                  19212062.434      987520.715 1
  23105423.046    23105426.512    12137781.597 8 -33245897.418 8
 86  6 20  4  9 35.0800000  0  3G12G13G 7
  21657890.062    21657889.354    44722705.833 7 -58884020.000 9
                  19319067.146      994146.913 1
  23104947.800    23104950.744    12135284.162 9 -33247843.457 8
 86  6 20  4  9 41.0800000  0  3G12G13G 7
  21660773.453    21660774.094    44737858.215 8 -58872212.955 9
                  19127631.907     1006346.305 1
  23104475.787    23104478.645    12132810.299 8 -33249771.144 8
 86  6 20  4  9 47.0800000  0  3G12G13G 7
  21663659.520    21663660.928    44753028.992 8 -58860391.572 8
                  19244211.472     1020178.107 1
  23104009.385    23104012.920    12130358.177 8 -33251681.887 8
 86  6 20  4  9 53.0800000  0  3G12G13G 7
  21666549.920    21666552.129    44768217.968 8 -58848556.006 9
                  19050405.575     1033785.942 1
  23103546.654    23103550.157    12127926.474 8 -33253576.707 8
 86  6 20  4  9 59.0800000  0  3G12G13G 7
  21669441.748    21669445.538    44783425.144 8 -58836706.266 7
                  19168904.861     1039223.590 1
  23103088.961    23103091.512    12125516.951 8 -33255454.273 8
 86  6 20  4 10  5.0800000  0  3G12G13G 7
  21672338.778    21672343.713    44798650.605 9 -58824842.273 9
                  19269527.959     1044664.095 1
                  23102638.919                   -33257309.817 8
 86  6 20  4 10 11.0800000  0  3G12G13G 7
  21675239.639    21675244.098    44813894.179 7 -58812964.177 8
                  19085328.347     1053310.637 1
  23102189.326    23102191.082    12086708.390 7 -33259138.080 8
 86  6 20  4 10 17.0800000  0  3G12G13G 7
  21678145.158    21678148.630    44829156.087 8 -58801071.778 8
                  19203311.929     1068356.706 1
  23101750.480    23101753.428    12084400.263 8 -33260936.637 8
 86  6 20  4 10 23.0800000  0  3G12G13G 7
  21681052.006    21681056.192    44844436.086 8 -58789165.288 8
                  19306056.794     1083405.632 1
  23101317.534    23101319.645    12082127.353 7 -33262707.739 8
 86  6 20  4 10 29.0800000  0  3G12G13G 7
  21683964.466    21683967.814    44859734.227 9 -58777244.662 9
                  19113935.722     1092009.884 1
  23100890.938    23100893.615    12079885.342 7 -33264454.764 8
 86  6 20  4 10 35.0800000  0  3G12G13G 7
  21686880.262    21686883.128    44875050.524 9 -58765309.886 8
                  19216383.401     1096264.694 1
  23100468.749    23100471.522    12077669.751 8 -33266181.193 8
 86  6 20  4 10 41.0800000  0  3G12G13G 7
  21689796.968    21689799.097    44890384.809 8 -58753361.091 8
                  19322351.269     1100522.362 1
  23100051.382    23100054.620    12075477.579 8 -33267889.386 8
 86  6 20  4 10 47.0800000  0  3G12G13G 7
  21692719.073    21692721.871    44905737.233 8 -58741398.172 7
                  19122038.572     1112266.808 1
  23099638.149    23099642.001    12073306.945 8 -33269580.788 7
 86  6 20  4 10 53.0800000  0  3G12G13G 7
  21695643.471    21695645.754    44921107.510 7 -58729421.327 7
                  19219740.305     1128530.002 1
  23099229.432    23099233.429    12071156.626 7 -33271256.368 7
 86  6 20  4 10 59.0800000  0  3G12G13G 7
  21698570.790    21698573.918    44936495.974 7 -58717430.323 6
                  19324182.240     1144796.055 1
  23098824.006    23098826.962    12069029.044 8 -33272914.213 7
 86  6 20  4 11  5.0800000  0  3G12G13G 7
  21701501.392    21701505.830    44951902.370 8 -58705425.343 7
                  19124075.427     1153008.648 1
                  23098427.912                   -33274549.772 6
 86  6 20  4 11 11.0800000  0  3G12G13G 7
  21704437.885    21704440.973    44967326.747 7 -58693406.355 6
                  19213697.904     1156080.622 1
  23098032.301    23098035.308    12030498.663 8 -33276157.624 6
 86  6 20  4 11 17.0800000  0  3G12G13G 7
  21707375.199    21707379.840    44982769.160 8 -58681373.308 7
                  19310939.740     1159155.453 1
  23097647.947    23097650.815    12028473.247 8 -33277735.878 6
 86  6 20  4 11 23.0800000  0  3G12G13G 7
  21710317.061    21710322.815    44998229.305 9 -58669326.448 8
                  19103489.071     1167277.908 1
  23097270.186    23097270.588    12026482.749 9 -33279286.918 7
 86  6 20  4 11 29.0800000  0  3G12G13G 7
  21713261.565    21713267.818    45013707.530 7 -58657265.491 7
                  19216954.383     1184758.228 1
  23096897.451    23096897.283    12024522.795 8 -33280814.151 7
 86  6 20  4 11 35.0800000  0  3G12G13G 7
  21716211.522    21716217.564    45029203.488 8 -58645190.731 8
                  19328954.434     1202241.405 1
  23096529.477    23096529.708    12022589.008 9 -33282321.008 7
 86  6 20  4 11 41.0800000  0  3G12G13G 7
  21719165.538    21719169.502    45044717.359 8 -58633101.996 8
                  19127091.229     1210466.336 1
  23096166.195    23096165.876    12020678.779 9 -33283809.484 8
 86  6 20  4 11 47.0800000  0  3G12G13G 7
  21722119.983    21722124.754    45060249.034 9 -58620999.398 8
                  19222644.580     1212355.473 1
  23095807.367    23095808.033    12018789.907 9 -33285281.346 6
 86  6 20  4 11 53.0800000  0  3G12G13G 7
  21725079.631    21725083.724    45075798.409 8 -58608883.002 8
                  19308527.207     1214247.466 1
  23095450.754    23095451.223    12016921.471 8 -33286737.281 7
 86  6 20  4 11 59.0800000  0  3G12G13G 7
  21728041.585    21728046.046    45091365.601 8 -58596752.721 8
                  19100751.657     1222195.876 1
  23095099.607    23095101.139    12015075.908 8 -33288175.374 7
 86  6 20  4 12  5.0800000  0  3G12G13G 7
  21731007.553    21731011.895    45106950.422 8 -58584608.712 7
                  19206829.420     1240893.321 1
                  23094756.553                   -33289590.772 6
 86  6 20  4 12 11.0800000  0  3G12G13G 7
  21733976.752    21733981.686    45122553.038 8 -58572450.836 8
                  19311734.973     1259593.623 1
  23094416.927    23094414.796    11976829.421 8 -33290978.207 8
 86  6 20  4 12 17.0800000  0  3G12G13G 7
  21736948.397    21736952.658    45138173.360 8 -58560279.150 7
                  19102517.690     1272290.821 1
  23094084.323    23094085.403    11975086.598 8 -33292336.275 8
 86  6 20  4 12 23.0800000  0  3G12G13G 7
  21739925.352    21739928.676    45153811.359 7 -58548093.689 8
                  19199308.787     1272997.120 1
  23093759.782    23093759.066    11973379.135 9 -33293667.145 7
 86  6 20  4 12 29.0800000  0  3G12G13G 7
  21742904.790    21742907.948    45169467.138 8 -58535894.373 9
                  19302253.980     1273706.278 1
  23093440.075    23093440.897    11971701.632 8 -33294974.287 7
 86  6 20  4 12 35.0800000  0  3G12G13G 7
  21745887.281    21745889.431    45185140.382 8 -58523681.461 7
                  19103721.408     1279416.674 1
  23093126.122    23093126.425    11970049.951 8 -33296261.317 8
 86  6 20  4 12 41.0800000  0  3G12G13G 7
  21748871.800    21748876.654    45200831.361 9 -58511454.725 7
                  19215305.920     1299331.245 1
  23092816.243    23092815.057    11968421.791 8 -33297530.000 8
 86  6 20  4 12 47.0800000  0  3G12G13G 7
  21751861.737    21751865.392    45216539.771 9 -58499214.403 8
                  19323959.909     1319248.672 1
  23092509.054    23092511.463    11966814.681 9 -33298782.298 7
 86  6 20  4 12 53.0800000  0  3G12G13G 7
  21754855.568    21754857.349    45232265.794 9 -58486960.362 8
                  19130599.691     1329030.253 1
  23092208.056    23092208.495    11965228.206 8 -33300018.505 6
 86  6 20  4 12 59.0800000  0  3G12G13G 7
  21757852.049    21757853.980    45248009.402 9 -58474692.615 6
                  19223357.885     1328553.716 1
  23091909.681    23091910.339    11963664.952 8 -33301236.610 6
 86  6 20  4 13  5.0800000  0  3G12G13G 7
  21760850.391    21760852.141    45263770.369 8 -58462411.339 7
                  19336043.632     1328080.035 1
                  23091617.709                   -33302431.707 7
 86  6 20  4 13 11.0800000  0  3G12G13G 7
  21763850.649    21763855.476    45279548.883 9 -58450116.408 8
                  19126294.909     1337984.318 1
  23091333.055    23091332.459    11925689.044 9 -33303598.696 7
 86  6 20  4 13 17.0800000  0  3G12G13G 7
  21766856.993    21766861.167    45295344.752 8 -58437807.945 9
                  19228733.558     1359116.014 1
  23091054.913    23091055.410    11924229.168 8 -33304736.323 7
 86  6 20  4 13 23.0800000  0  3G12G13G 7
  21769865.336    21769869.858    45311158.147 8 -58425485.813 8
                  19332344.415     1380250.567 1
  23090783.775    23090784.576    11922803.383 9 -33305846.933 8
 86  6 20  4 13 29.0800000  0  3G12G13G 7
  21772878.902    21772881.805    45326988.936 8 -58413150.141 8
                  19129740.247     1390740.473 1
  23090517.766    23090517.956    11921408.229 8 -33306934.068 8
 86  6 20  4 13 35.0800000  0  3G12G13G 7
  21775895.884    21775897.161    45342837.048 8 -58400800.964 9
                  19224908.395     1389081.099 1
  23090256.776    23090258.694    11920038.914 8 -33308001.083 8
 86  6 20  4 13 41.0800000  0  3G12G13G 7
  21778913.937    21778916.277    45358702.605 9 -58388438.192 8
                  19315680.759     1387424.582 1
  23090000.155    23090002.000    11918692.903 8 -33309049.920 7
 86  6 20  4 13 47.0800000  0  3G12G13G 7
  21781935.157    21781939.204    45374585.303 8 -58376062.065 8
                  19101999.309     1388978.948 1
  23089748.254    23089749.979    11917367.852 8 -33310082.432 9
 86  6 20  4 13 53.0800000  0  3G12G13G 7
  21784961.244    21784964.593    45390485.342 7 -58363672.435 8
                  19194998.556     1411327.768 1
  23089500.325    23089502.602    11916063.657 8 -33311098.686 8
 86  6 20  4 13 59.0800000  0  3G12G13G 7
  21787991.028    21787993.950    45406402.528 8 -58351269.427 8
                  19295324.595     1433679.448 1
  23089256.784    23089258.319    11914782.882 9 -33312096.698 8
 86  6 20  4 14  5.0800000  0  3G12G13G 7
  21791022.234    21791025.957    45422337.006 9 -58338852.950 8
                  19101402.563     1455909.947 1
                  23089020.167                   -33313071.215 7
 86  6 20  4 14 11.0800000  0  3G12G13G 7
  21794056.868    21794061.027    45438288.767 8 -58326423.002 7
                  19278568.965     1466267.529 1
  23088790.317    23088787.482    11877093.098 7 -33314017.327 8
 86  6 20  4 14 17.0800000  0  3G12G13G 7
  21797096.084    21797100.103    45454257.611 8 -58313979.759 8
                  19154995.420     1476267.570 1
  23088565.089    23088565.638    11875916.531 8 -33314934.115 7
 86  6 20  4 14 23.0800000  0  3G12G13G 7
  21800136.549    21800142.933    45470243.756 8 -58301523.036 8
                  19331055.148     1485430.885 1
  23088346.854    23088349.354    11874774.376 8 -33315824.113 8
 86  6 20  4 14 29.0800000  0  3G12G13G 7
  21803182.943    21803188.011    45486246.947 9 -58289053.009 8
                  19205539.147     1495997.844 1
  23088135.736    23088137.265    11873661.841 8 -33316691.025 9
 86  6 20  4 14 35.0800000  0  3G12G13G 7
  21806231.831    21806236.899    45502267.309 8 -58276569.604 7
                  19382937.357     1507566.835 1
  23087928.167    23087929.741    11872575.063 7 -33317537.859 7
 86  6 20  4 14 41.0800000  0  3G12G13G 7
  21809284.894    21809289.646    45518304.808 8 -58264072.862 8
                  19258191.592     1516029.522 1
  23087725.606    23087728.554    11871511.406 8 -33318366.682 8
 86  6 20  4 14 47.0800000  0  3G12G13G 7
  21812340.219    21812344.250    45534359.282 8 -58251562.884 8
                  19134072.707     1524709.890 1
  23087526.891    23087531.816    11870468.840 8 -33319179.079 8
 86  6 20  4 14 53.0800000  0  3G12G13G 7
  21815398.236    21815401.441    45550430.879 8 -58239039.555 7
                  19311698.434     1537487.435 1
  23087332.305    23087336.556    11869447.093 7 -33319975.244 7
 86  6 20  4 14 59.0800000  0  3G12G13G 7
  21818460.890    21818463.102    45566519.328 8 -58226503.111 8
                  19186985.140     1547665.861 1
  23087143.337    23087145.296    11868448.799 8 -33320753.110 7
 86  6 20  4 15  5.0800000  0  3G12G13G 7
  21821527.341    21821527.321    45582624.902 8 -58213953.323 6
                  19363472.701     1554449.215 1
                  23086962.509                   -33321507.030 6
 86  6 20  4 15 11.0800000  0  3G12G13G 7
  21824593.948    21824595.628    45598747.366 8 -58201390.363 8
                  19239401.060     1566445.767 1
  23086783.309    23086786.926    11831046.870 7 -33322232.396 8
 86  6 20  4 15 17.0800000  0  3G12G13G 7
  21827664.662    21827665.743    45614886.676 8 -58188814.289 8
                  19117161.902     1580375.898 1
  23086614.214    23086614.610    11830153.592 8 -33322928.460 7
 86  6 20  4 15 23.0800000  0  3G12G13G 7
  21830738.281    21830741.876    45631043.033 8 -58176224.927 6
                  19292543.375     1585967.843 1
  23086450.623    23086449.752    11829295.003 7 -33323597.851 8
 86  6 20  4 15 29.0800000  0  3G12G13G 7
  21833816.170    21833819.694    45647216.153 9 -58163622.509 8
                  19167489.877     1594349.833 1
  23086292.220    23086293.017    11828465.172 8 -33324244.481 8
 86  6 20  4 15 35.0800000  0  3G12G13G 7
  21836897.492    21836900.303    45663406.241 8 -58151006.849 8
                  19345578.321     1609547.341 1
  23086136.928    23086140.004    11827660.973 8 -33324871.136 8
 86  6 20  4 15 41.0800000  0  3G12G13G 7
  21839981.037    21839983.615    45679613.081 8 -58138378.148 8
                  19220923.588     1618480.173 1
  23085988.998    23085989.409    11826879.667 8 -33325479.951 8
 86  6 20  4 15 47.0800000  0  3G12G13G 7
  21843067.294    21843072.332    45695836.789 8 -58125736.311 7
                  19393440.074     1622883.567 1
  23085843.849    23085845.292    11826119.425 8 -33326072.347 8
 86  6 20  4 15 53.0800000  0  3G12G13G 7
  21846159.855    21846163.047    45712077.383 8 -58113081.308 9
                  19268676.935     1637413.696 1
  23085704.772    23085704.700    11825379.968 7 -33326648.560 8
 86  6 20  4 15 59.0800000  0  3G12G13G 7
  21849253.887    21849258.764    45728334.603 8 -58100413.337 8
                  19146011.613     1652190.201 1
  23085568.359    23085569.106    11824664.481 8 -33327206.092 8
 86  6 20  4 16  5.0800000  0  3G12G13G 7
  21852352.413    21852355.379    45744608.668 8 -58087732.241 9
                  19320938.053     1655402.185 1
                  23085438.300                   -33327739.406 7
 86  6 20  4 16 11.0800000  0  3G12G13G 7
  21855452.162    21855454.852    45760899.272 8 -58075038.266 9
                  19196895.423     1664477.780 1
  23085313.755    23085314.473    11787540.953 8 -33328244.046 7
 86  6 20  4 16 17.0800000  0  3G12G13G 7
  21858555.591    21858558.998    45777206.723 8 -58062331.164 8
                  19374564.935     1682095.253 1
  23085196.915    23085197.993    11786930.914 7 -33328719.415 7
 86  6 20  4 16 23.0800000  0  3G12G13G 7
  21861661.601    21861664.976    45793530.752 8 -58049611.137 9
                  19250098.232     1688946.504 1
  23085087.573    23085090.837    11786354.217 8 -33329168.400 9
 86  6 20  4 16 29.0800000  0  3G12G13G 7
  21864769.536    21864775.177    45809871.415 9 -58036878.172 7
                  19425679.963     1690969.938 1
  23084984.616    23084986.740    11785807.270 8 -33329594.602 7
 86  6 20  4 16 35.0800000  0  3G12G13G 7
  21867882.289    21867886.907    45826228.763 8 -58024132.188 9
                  19301963.419     1709465.621 1
  23084886.626    23084886.169    11785285.713 8 -33330001.019 8
 86  6 20  4 16 41.0800000  0  3G12G13G 7
  21870997.468    21871002.084    45842602.596 9 -58011373.367 9
                  19178029.409     1723728.520 1
  23084789.657    23084791.852    11784786.951 8 -33330389.665 7
 86  6 20  4 16 47.0800000  0  3G12G13G 7
  21874115.274    21874121.586    45858993.160 8 -57998601.508 8
                  19352505.110     1724560.544 1
  23084699.529    23084700.583    11784309.194 8 -33330761.937 7
 86  6 20  4 16 53.0800000  0  3G12G13G 7
  21877238.984    21877242.429    45875400.150 9 -57985816.836 7
                  19227098.733     1735705.724 1
  23084612.644    23084613.282    11783852.167 8 -33331118.056 8
 86  6 20  4 16 59.0800000  0  3G12G13G 7
  21880363.566    21880366.329    45891823.623 8 -57973019.330 8
                  19405227.571     1755743.161 1
  23084529.795    23084531.646    11783419.539 8 -33331455.158 8
 86  6 20  4 17  5.0800000  0  3G12G13G 7
  21883492.953    21883494.074    45908263.724 9 -57960208.859 8
                  19280126.264     1759252.850 1
                  23084455.110                   -33331767.723 8
 86  6 20  4 17 11.0800000  0  3G12G13G 7
  21886624.829    21886626.249    45924720.123 8 -57947385.703 8
                  19154994.620     1761063.557 1
  23084383.241    23084384.346    11746577.284 8 -33332051.450 8
 86  6 20  4 17 17.0800000  0  3G12G13G 7
  21889757.833    21889759.774    45941193.059 8 -57934549.646 8
                  19334234.423     1782309.547 1
  23084321.949    23084323.571    11746250.609 8 -33332306.017 6
 86  6 20  4 17 23.0800000  0  3G12G13G 7
  21892895.326    21892897.567    45957682.209 9 -57921700.953 8
                  19210229.403     1794658.863 1
  23084266.669    23084267.044    11745957.437 8 -33332534.464 8
 86  6 20  4 17 29.0800000  0  3G12G13G 7
  21896037.211    21896039.057    45974187.871 8 -57908839.400 8
                  19380733.445     1793110.927 1
  23084216.895    23084217.031    11745693.216 8 -33332740.335 7
 86  6 20  4 17 35.0800000  0  3G12G13G 7
  21899180.654    21899182.974    45990709.860 7 -57895965.121 8
                  19257932.063     1807173.676 1
  23084171.457    23084171.972    11745454.231 8 -33332926.577 7
 86  6 20  4 17 41.0800000  0  3G12G13G 7
  21902326.540    21902330.375    46007248.084 7 -57883078.196 8
                  19437399.383     1829631.078 1
  23084128.929    23084130.819    11745237.735 7 -33333095.283 8
 86  6 20  4 17 47.0800000  0  3G12G13G 7
  21905478.132    21905481.276    46023802.749 7 -57870178.469 9
                  19289728.081     1840807.475 1
  23084093.165    23084093.706    11745042.226 8 -33333247.628 7
 86  6 20  4 17 53.0800000  0  3G12G13G 7
  21908628.852    21908634.812    46040373.511 8 -57857266.191 8
                  19444643.975     1851270.779 1
  23084058.299    23084063.037    11744867.580 7 -33333383.712 7
 86  6 20  4 17 59.0800000  0  3G12G13G 7
  21911785.606    21911791.216    46056960.531 8 -57844341.244 9
                  19299255.866     1860584.556 1
                  23084034.465                   -33333500.512 8
 86  6 20  4 18  5.0800000  0  3G12G13G 7
  21914946.784    21914951.441    46073563.669 7 -57831403.734 8
                  19454242.000     1869878.400 1
  23084002.842    23084010.211    11708243.457 8 -33333592.613 8
 86  6 20  4 18 11.0800000  0  3G12G13G 7
  21918109.190    21918113.728    46090183.067 9 -57818453.545 8
                  19306369.377     1881550.258 1
  23083992.961    23083996.953    11708162.656 7 -33333655.576 8
 86  6 20  4 18 17.0800000  0  3G12G13G 7
  21921275.396    21921280.299    46106818.451 7 -57805490.914 8
                  19452721.219     1893224.972 1
  23083985.157    23083988.596    11708118.820 8 -33333689.733 9
 86  6 20  4 18 23.0800000  0  3G12G13G 7
  21924443.134    21924448.715    46123469.865 8 -57792515.791 9
                  19308286.750     1901397.388 1
  23083983.736    23083985.906    11708108.281 8 -33333697.936 9
 86  6 20  4 18 29.0800000  0  3G12G13G 7
  21927615.800    21927619.516    46140137.543 7 -57779527.991 8
                  19455421.305     1909477.875 1
  23083987.687    23083989.613    11708126.452 8 -33333683.790 8
 86  6 20  4 18 35.0800000  0  3G12G13G 7
  21930791.194    21930794.268    46156821.243 8 -57766527.701 9
                  19299260.948     1922250.759 1
  23083994.155    23083996.959    11708169.615 7 -33333650.150 9
 86  6 20  4 18 41.0800000  0  3G12G13G 7
  21933968.779    21933972.573    46173521.306 8 -57753514.675 8
                  19450533.435     1935136.884 1
  23084006.488    23084009.523    11708235.675 7 -33333598.681 8
 86  6 20  4 18 47.0800000  0  3G12G13G 7
  21937148.885    21937152.913    46190237.256 8 -57740489.256 8
                  19306815.989     1942463.935 1
  23084023.058    23084025.534    11708322.250 8 -33333531.214 9
 86  6 20  4 18 53.0800000  0  3G12G13G 7
  21940332.788    21940336.210    46206969.343 8 -57727451.263 8
                  19452843.871     1949355.869 1
  23084042.186    23084045.954    11708429.984 8 -33333447.274 9
 86  6 20  4 18 59.0800000  0  3G12G13G 7
  21943521.744    21943521.942    46223717.489 8 -57714400.771 7
                  19312944.792     1962876.980 1
                  23084070.972                   -33333343.884 8
 86  6 20  4 19  5.0800000  0  3G12G13G 7
  21946711.509    21946712.578    46240481.402 8 -57701337.968 7
                  19466793.507     1976974.516 1
  23084097.855    23084103.583    11672094.262 6 -33333215.596 8
 86  6 20  4 19 11.0800000  0  3G12G13G 7
  21949903.331    21949905.826    46257261.319 8 -57688262.709 7
                  19318958.652     1982672.215 1
  23084137.638    23084139.765    11672296.472 9 -33333058.076 8
 86  6 20  4 19 17.0800000  0  3G12G13G 7
  21953099.216    21953101.186    46274057.138 8 -57675175.077 7
                  19170575.948     1988570.824 1
  23084183.840    23084186.714    11672535.748 8 -33332871.615 8
 86  6 20  4 19 23.0800000  0  3G12G13G 7
  21956299.150    21956301.548    46290868.757 9 -57662075.111 8
                  19320842.498     2003876.913 1
  23084235.400    23084237.685    11672808.148 9 -33332659.351 9
 86  6 20  4 19 29.0800000  0  3G12G13G 7
  21959501.380    21959503.642    46307696.282 9 -57648962.759 8
                  19472868.752     2019185.861 1
  23084292.735    23084295.720    11673109.139 7 -33332424.819 9
 86  6 20  4 19 35.0800000  0  3G12G13G 7
  21962707.035    21962707.830    46324539.527 8 -57635838.158 8
                  19320697.257     2023658.200 1
  23084355.092    23084357.148    11673434.531 7 -33332171.266 9
 86  6 20  4 19 41.0800000  0  3G12G13G 7
  21965915.414    21965918.436    46341398.680 8 -57622701.170 8
                  19460706.406     2028173.031 1
  23084421.221    23084423.701    11673782.505 7 -33331900.122 7
 86  6 20  4 19 47.0800000  0  3G12G13G 7
  21969126.711    21969128.369    46358273.520 8 -57609551.948 7
                  19297441.695     2043654.585 1
  23084490.677    23084493.850    11674151.190 8 -33331612.838 7
 86  6 20  4 19 53.0800000  0  3G12G13G 7
  21972340.517    21972343.587    46375164.107 8 -57596390.440 8
                  19445302.585     2060174.942 1
  23084564.111    23084566.817    11674541.007 8 -33331309.093 7
 86  6 20  4 19 59.0800000  0  3G12G13G 7
  21975559.053    21975560.204    46392070.401 7 -57583216.714 8
                  19292893.389     2066485.876 1
                  23084644.696                   -33330985.588 7
 86  6 20  4 20  5.0800000  0  3G12G13G 7
  21978778.392    21978781.366    46408992.312 8 -57570030.815 8
                  19450551.210     2069812.154 1
  23084665.331    23084731.425    11638478.177 7 -33330636.927 8
 86  6 20  4 20 11.0800000  0  3G12G13G 7
  21982000.729    21982004.524    46425930.141 8 -57556832.518 7
                  19295693.720     2084809.953 1
  23084820.814    23084821.518    11638963.543 8 -33330258.689 8
 86  6 20  4 20 17.0800000  0  3G12G13G 7
  21985229.834    21985230.368    46442883.461 8 -57543622.125 8
                  19451991.881     2102541.721 1
  23084920.666    23084920.971    11639486.291 8 -33329851.732 8
 86  6 20  4 20 23.0800000  0  3G12G13G 7
  21988457.191    21988460.713    46459852.433 8 -57530399.550 8
                  19306658.342     2107531.297 1
  23085025.238    23085025.900    11640041.311 8 -33329419.253 7
 86  6 20  4 20 29.0800000  0  3G12G13G 7
  21991689.903    21991692.877    46476837.027 8 -57517164.800 7
                  19445923.700     2109669.025 1
  23085136.478    23085139.917    11640624.269 8 -33328965.019 7
 86  6 20  4 20 35.0800000  0  3G12G13G 7
  21994922.856    21994927.236    46493837.068 8 -57503918.020 7
                  19295359.678     2124135.068 1
  23085251.380    23085255.002    11641231.639 7 -33328491.726 7
 86  6 20  4 20 41.0800000  0  3G12G13G 7
  21998161.366    21998166.057    46510852.825 9 -57490658.997 8
                  19444270.290     2143078.247 1
  23085372.751    23085374.319    11641861.610 8 -33328000.835 8
 86  6 20  4 20 47.0800000  0  3G12G13G 7
  22001402.390    22001406.610    46527883.948 8 -57477387.990 8
                  19284283.411     2149598.421 1
  23085495.694    23085499.310    11642512.060 8 -33327493.986 8
 86  6 20  4 20 53.0800000  0  3G12G13G 7
  22004646.799    22004649.670    46544930.658 8 -57464104.829 8
                  19433871.134     2150547.597 1
  23085624.174    23085626.502    11643183.772 8 -33326970.571 7
 86  6 20  4 20 59.0800000  0  3G12G13G 7
  22007892.775    22007896.303    46561992.763 7 -57450809.681 8
                  19279204.548     2163473.903 1
                  23085761.133                   -33326427.196 8
 86  6 20  4 21  5.0800000  0  3G12G13G 7
  22011141.103    22011145.394    46579070.299 9 -57437502.511 8
                  19430100.989     2183628.491 1
  23085899.427    23085898.954    11607403.251 8 -33325858.154 8
 86  6 20  4 21 11.0800000  0  3G12G13G 7
  22014393.186    22014399.255    46596163.295 9 -57424183.293 9
                  19274647.653     2192423.253 1
  23086042.280    23086045.589    11608171.329 7 -33325259.723 8
 86  6 20  4 21 17.0800000  0  3G12G13G 7
  22017649.007    22017653.692    46613271.573 7 -57410852.175 8
                  19413164.926     2192183.876 1
  23086194.446    23086197.876    11608975.780 8 -33324632.876 9
 86  6 20  4 21 23.0800000  0  3G12G13G 7
  22020907.703    22020912.431    46630395.362 8 -57397508.956 8
                  19253659.484     2201242.479 1
  23086353.620    23086356.804    11609812.641 7 -33323980.766 7
 86  6 20  4 21 29.0800000  0  3G12G13G 7
  22024169.618    22024173.684    46647534.326 8 -57384153.921 8
                  19400098.898     2222608.480 1
  23086516.800    23086521.466    11610677.327 7 -33323307.008 8
 86  6 20  4 21 35.0800000  0  3G12G13G 7
  22027434.515    22027438.564    46664688.619 8 -57370786.939 7
                  19255395.431     2235533.797 1
  23086686.282    23086690.415    11611566.573 6 -33322614.074 9
 86  6 20  4 21 41.0800000  0  3G12G13G 7
  22030702.944    22030705.000    46681858.204 9 -57357408.037 8
                  19384018.286     2234105.870 1
  23086862.095    23086864.553    11612478.010 7 -33321903.863 8
 86  6 20  4 21 47.0800000  0  3G12G13G 7
  22033973.976    22033977.353    46699042.980 7 -57344017.300 7
                  19229710.811     2238128.789 1
  23087039.738    23087041.378    11613409.835 7 -33321177.752 8
 86  6 20  4 21 53.0800000  0  3G12G13G 7
  22037247.898    22037249.358    46716243.110 8 -57330614.604 7
                  19369934.884     2260706.199 1
  23087219.221    23087222.626    11614362.994 7 -33320435.046 8
 86  6 20  4 21 59.0800000  0  3G12G13G 7
  22040523.994    22040524.655    46733458.303 8 -57317200.163 7
                  19214578.816     2282322.445 1
                  23087408.078                   -33319671.951 8
 86  6 20  4 22  5.0800000  0  3G12G13G 7
  22043802.525    22043803.462    46750688.807 8 -57303773.781 5
                  19309440.461     2292905.757 1
  23087600.491    23087600.781    11578861.275 7 -33318882.972 7
 86  6 20  4 22 11.0800000  0  3G12G13G 7
  22047084.000    22047085.705    46767934.434 8 -57290335.640 7
                  19406060.419     2303491.929 1
  23087800.831    23087800.753    11579911.629 7 -33318064.558 7
 86  6 20  4 22 17.0800000  0  3G12G13G 7
  22050367.242    22050370.155    46785195.078 8 -57276885.776 7
                  19437571.731     2313794.424 6
  23088007.084    23088008.654    11580997.669 7 -33317217.915 8
 86  6 20  4 22 23.0800000  0  3G12G13G 7
  22053653.741    22053657.762    46802470.840 8 -57263424.152 7
                  19439469.847     2323950.181 7
  23088219.897    23088221.408    11582116.431 8 -33316346.150 8
 86  6 20  4 22 29.0800000  0  3G12G13G 7
  22056943.759    22056946.766    46819761.574 8 -57249950.852 9
                  16143703.634     2334106.835 8
  23088437.254    23088439.961    11583262.685 8 -33315452.963 9
 86  6 20  4 22 35.0800000  0  3G12G13G 7
  22060237.697    22060239.680    46837067.471 8 -57236465.746 8
                  22141482.236     2344264.806 8
  23088661.107    23088663.050    11584433.437 8 -33314540.692 8
 86  6 20  4 22 41.0800000  0  3G12G13G 7
  22063533.716    22063536.387    46854388.237 8 -57222969.049 8
                  22143406.200     2354423.847 7
  23088886.112    23088889.857    11585626.132 8 -33313611.335 8
 86  6 20  4 22 47.0800000  0  3G12G13G 7
  22066834.068    22066834.799    46871723.972 8 -57209460.693 8
                  22445167.046     2364583.807 5
  23089115.232    23089120.273    11586838.999 8 -33312666.238 9
 86  6 20  4 22 53.0800000  0  3G12G13G 7
  22070135.683    22070135.005    46889074.754 8 -57195940.610 7
  22447099.119    22447135.779     2374745.325 5  10436514.857 1
  23089352.402    23089354.901    11588073.226 9 -33311704.518 8
 86  6 20  4 22 59.0800000  0  3G12G13G 7
  22073440.556    22073439.459    46906440.334 8 -57182409.003 7
  22449032.302    22449028.839     2384907.971 6  10444433.847 1
                  23089595.716                   -33310722.011 7
 86  6 20  4 23  5.0800000  0  3G12G13G 7
  22076748.221    22076746.232    46923820.943 7 -57168865.667 7
  22450966.355    22450966.510     2395071.920 5  10452353.796 3
  23089738.779    23089841.376    11552847.885 7 -33309713.297 8
 86  6 20  4 23 11.0800000  0  3G12G13G 7
  22080058.566    22080056.365    46941216.346 8 -57155310.827 7
  22452902.475    22452902.066     2405236.830 6  10460274.522 2
  23090093.467    23090094.453    11554179.914 8 -33308675.176 8
 86  6 20  4 23 17.0800000  0  3G12G13G 7
  22083371.875    22083369.728    46958626.643 8 -57141744.330 7
  22454837.587    22454840.950     2415402.936 6  10468196.156 3
  23090353.150    23090355.698    11555548.183 8 -33307608.971 7
 86  6 20  4 23 23.0800000  0  3G12G13G 7
  22086686.945    22086686.926    46976051.828 8 -57128166.275 8
  22456772.734    22456776.583     2425570.199 6  10476118.700 4
  23090619.731    23090621.419    11556948.255 7 -33306518.019 8
 86  6 20  4 23 29.0800000  0  3G12G13G 7
  22090004.895    22090005.472    46993491.660 8 -57114576.803 7
  22458708.957    22458712.817     2435738.623 6  10484042.122 4
  23090891.005    23090894.042    11558375.610 9 -33305405.776 7
 86  6 20  4 23 35.0800000  0  3G12G13G 7
  22093326.899    22093328.569    47010946.337 8 -57100975.749 8
  22460642.844    22460646.876     2445908.251 7  10491966.514 5
  23091167.707    23091169.348    11559827.214 8 -33304274.665 8
 86  6 20  4 23 41.0800000  0  3G12G13G 7
  22096651.486    22096653.694    47028415.635 8 -57087363.312 7
  22462579.639    22462583.242     2456078.946 6  10499891.722 5
  23091448.663    23091449.057    11561300.412 8 -33303126.710 8
 86  6 20  4 23 47.0800000  0  3G12G13G 7
  22099977.370    22099980.104    47045899.702 8 -57073739.358 7
  22464516.686    22464516.814     2466250.891 6  10507817.899 4
  23091733.483    23091732.823    11562793.967 8 -33301962.895 8
 86  6 20  4 23 53.0800000  0  3G12G13G 7
  22103306.396    22103311.304    47063398.406 8 -57060104.013 6
  22466450.018    22466453.080     2476423.917 7  10515744.924 5
  23092021.326    23092021.489    11564309.142 8 -33300782.246 7
